Weather History for WARR - September, 2013

Change the Weather History Date:

Friday, September 20, 2013

  Actual Average Record
Temperature  
Mean Temperature 78 °F -  
Max Temperature 87 °F - - ()
Min Temperature 69 °F - - ()
Cooling Degree Days 13    
Growing Degree Days 28 (Base 50)    
Moisture  
Dew Point 66 °F    
Average Humidity 64    
Maximum Humidity 83    
Minimum Humidity 35    
Precipitation  
Precipitation 0.00 in - - ()
Sea Level Pressure  
Sea Level Pressure 29.82 in    
Wind  
Wind Speed 6 mph ()    
Max Wind Speed 12 mph    
Max Gust Speed -    
Visibility 6.0 miles    
Events      
T = Trace of Precipitation, MM = Missing Value Source: Averaged Metar Reports

Daily Weather History Graph

Daily Weather History Graph

Search for Another Location

Airport or City:

Trip Planner

Search our weather history database for the weather conditions in past years. The results will help you decide how hot, cold, wet, or windy it might be!

Date:

Astronomy

Sep. 20, 2013 Rise Set
Actual Time 5:19 AM WIB 5:25 PM WIB
Civil Twilight 4:58 AM WIB 5:45 PM WIB
Nautical Twilight 4:34 AM WIB 6:10 PM WIB
Astronomical Twilight 4:10 AM WIB 6:34 PM WIB
Moon 6:08 PM WIB (9/20) 5:36 AM WIB (9/20)
Length of Visible Light 12h 47m
Length of Day
12h 05m
Full, 99% of the Moon is Illuminated
Sep 20
Full
Sep 27
Last Quarter
Oct 5
New
Oct 12
First Quarter
Oct 19
Full

Hourly Weather History & Observations

Time (WIB) Temp. Heat Index Dew Point Humidity Pressure Visibility Wind Dir Wind Speed Gust Speed Precip Events Conditions
12:00 AM 75.2 °F - 66.2 °F 73% 29.83 in - SW 3.5 mph - N/A   Clear
12:30 AM 75.2 °F - 64.4 °F 69% 29.83 in - SW 4.6 mph - N/A   Clear
1:00 AM 73.4 °F - 64.4 °F 73% 29.83 in - WSW 6.9 mph - N/A   Clear
1:30 AM 73.4 °F - 64.4 °F 73% 29.80 in - West 5.8 mph - N/A   Clear
2:00 AM 73.4 °F - 66.2 °F 78% 29.80 in - West 8.1 mph - N/A   Clear
2:30 AM 73.4 °F - 66.2 °F 78% 29.80 in - West 8.1 mph - N/A   Clear
3:00 AM 71.6 °F - 66.2 °F 83% 29.80 in - West 8.1 mph - N/A   Clear
3:30 AM 71.6 °F - 66.2 °F 83% 29.80 in - West 6.9 mph - N/A   Clear
4:00 AM 71.6 °F - 66.2 °F 83% 29.83 in - WSW 5.8 mph - N/A   Clear
4:30 AM 71.6 °F - 64.4 °F 78% 29.83 in - WSW 3.5 mph - N/A   Clear
5:00 AM 69.8 °F - 64.4 °F 83% 29.83 in - West 1.2 mph - N/A   Clear
5:30 AM 69.8 °F - 64.4 °F 83% 29.83 in - South 2.3 mph - N/A   Clear
6:00 AM 71.6 °F - 66.2 °F 83% 29.86 in - WSW 3.5 mph - N/A   Clear
6:30 AM 73.4 °F - 68.0 °F 83% 29.86 in 5.0 mi WSW 3.5 mph - N/A   Clear
7:00 AM 75.2 °F - 68.0 °F 78% 29.86 in - West 3.5 mph - N/A   Clear
8:00 AM 80.6 °F 82.7 °F 66.2 °F 61% 29.89 in - Variable 2.3 mph - N/A   Clear
8:30 AM 82.4 °F 84.6 °F 66.2 °F 58% 29.89 in - Variable 2.3 mph - N/A   Clear
9:00 AM 84.2 °F 86.6 °F 66.2 °F 55% 29.89 in - Variable 2.3 mph - N/A   Clear
9:30 AM 84.2 °F 86.6 °F 66.2 °F 55% 29.89 in - SSE 6.9 mph - N/A   Clear
10:00 AM 86.0 °F 89.4 °F 68.0 °F 55% 29.89 in - ENE 6.9 mph - N/A   Clear
10:30 AM 86.0 °F 89.4 °F 68.0 °F 55% 29.86 in - East 6.9 mph - N/A   Clear
11:00 AM 87.8 °F 92.6 °F 69.8 °F 55% 29.86 in 6.2 mi East 8.1 mph - N/A   Partly Cloudy
11:30 AM 86.0 °F 90.4 °F 69.8 °F 58% 29.83 in 6.2 mi ESE 8.1 mph - N/A   Partly Cloudy
12:00 PM 86.0 °F 90.4 °F 69.8 °F 58% 29.80 in 6.2 mi East 9.2 mph - N/A   Partly Cloudy
12:30 PM 86.0 °F 90.4 °F 69.8 °F 58% 29.80 in 6.2 mi East 9.2 mph - N/A   Partly Cloudy
1:00 PM 86.0 °F 89.4 °F 68.0 °F 55% 29.80 in 6.2 mi East 10.4 mph - N/A   Partly Cloudy
1:30 PM 87.8 °F 90.4 °F 66.2 °F 49% 29.77 in 6.2 mi East 9.2 mph - N/A   Partly Cloudy
2:00 PM 87.8 °F 90.4 °F 66.2 °F 49% 29.77 in 6.2 mi East 9.2 mph - N/A   Partly Cloudy
2:30 PM 87.8 °F 90.4 °F 66.2 °F 49% 29.77 in - East 10.4 mph - N/A   Clear
3:00 PM - - - N/A% 29.74 in - East 8.1 mph - N/A   Clear
3:30 PM 87.8 °F 87.6 °F 60.8 °F 40% 29.74 in - East 9.2 mph - N/A   Clear
4:00 PM 87.8 °F 86.5 °F 57.2 °F 35% 29.74 in - East 11.5 mph - N/A   Clear
4:30 PM 87.8 °F 87.1 °F 59.0 °F 38% 29.74 in - East 11.5 mph - N/A   Clear
5:00 PM 86.0 °F 86.1 °F 60.8 °F 43% 29.77 in - East 10.4 mph - N/A   Clear
5:30 PM 82.4 °F 83.9 °F 64.4 °F 54% 29.77 in - ESE 8.1 mph - N/A   Clear
6:00 PM 80.6 °F 82.7 °F 66.2 °F 61% 29.77 in - ESE 8.1 mph - N/A   Clear
6:30 PM 80.6 °F 83.2 °F 68.0 °F 65% 29.80 in - ESE 10.4 mph - N/A   Clear
7:00 PM 80.6 °F 83.2 °F 68.0 °F 65% 29.80 in - ESE 9.2 mph - N/A   Clear
7:30 PM 80.6 °F 83.9 °F 69.8 °F 70% 29.83 in - ESE 9.2 mph - N/A   Clear
8:00 PM 78.8 °F - 68.0 °F 69% 29.83 in - ESE 6.9 mph - N/A   Clear
8:30 PM 80.6 °F 82.7 °F 66.2 °F 61% 29.83 in - SE 5.8 mph - N/A   Clear
9:30 PM 78.8 °F - 66.2 °F 65% 29.86 in - Variable 1.2 mph - N/A   Clear
10:00 PM 78.8 °F - 66.2 °F 65% 29.86 in - Variable 1.2 mph - N/A   Clear
10:30 PM 78.8 °F - 66.2 °F 65% 29.86 in - Variable 2.3 mph - N/A   Clear
11:00 PM 77.0 °F - 66.2 °F 69% 29.86 in - WSW 3.5 mph - N/A   Clear
11:30 PM 77.0 °F - 66.2 °F 69% 29.86 in - WSW 3.5 mph - N/A   Clear